Location: Großmugl Leeberg
(48.4883°N, 16.2231°E)
Time: 00:36:55
(UTC+01:00)

ISS - Visible Passes

Search period start: 18 February 2019 00:00
Search period end: 28 February 2019 00:00
Orbit: 403 x 411 km, 51.6° (Epoch: 18 February)

Date Brightness Start Highest point End Pass type
(mag) Time Alt. Az. Time Alt. Az. Time Alt. Az.
24 Feb -1.3 05:43:15 10° S 05:45:41 20° SE 05:48:09 10° E visible
25 Feb -0.9 04:53:02 10° SSE 04:54:24 12° SE 04:55:46 10° ESE visible
26 Feb -2.6 05:35:52 10° SW 05:38:56 38° SSE 05:42:01 10° ENE visible
27 Feb -1.9 04:46:31 21° S 04:47:32 24° SE 04:50:15 10° E visible
